Find Starlink 36498

NORAD ID: 67318 Int'l Des: 2026-002 Owner: SPXS Country: US Constellation: starlink operational
LEOCIRCULAR

Current View

Loading 3D Globe...

About Starlink 36498

Description loading...

Upcoming Passes

Passes for default location (London). Set your location on the main map for personalized predictions.

Altitude History

Loading altitude history...

Two-Line Element Set

1 67318U 26002P 26146.34302986 .00032778 00000-0 11939-2 0 9991
2 67318 42.9986 246.8329 0001598 219.1662 140.9074 15.27618702 23019
Epoch: May 26, 2026 • Age: 12 hours

Current Status

Altitude 481.4 km
Velocity 7.63 km/s
Sub-Earth Point 5.55°N, 125.76°W
Launch Date Jan 4, 2026
Age 0.3 years
Type internet

Technical Details

Classification Payload
Mass 575.00 kg
Dry Mass 530.00 kg
Total Mass 575.00 kg
Length 0.30 m
Diameter 4.10 m
Span 29.00 m
Shape Box + pan
Manufacturer SPXS
Bus Type Starlink V2MO
Phase Status In Orbit
Owner/State SPXS/US

Most Searched